• In Deutschland
  • Länderverzeichnis
  • Für 7 Tage
  • Wassertemperatur
  • Satellitenkarten
  • Wetterkarte
  • Widgets
  • user-avatar
    Anmelden

    Stündliche Wetter Andora

    Heute, 21 Mai, Montag

    Zeit Temperatur Niederschläge Wind Luftdruck Luftfeuchtigkeit
    00:00 +6°C° 0 mm 1 m/S 622 mmHg 90%
    01:00 +6°C° 0 mm 1 m/S 622 mmHg 90%
    02:00 +5°C° 0 mm 1 m/S 621 mmHg 90%
    03:00 +5°C° 0 mm 1 m/S 621 mmHg 89%
    04:00 +6°C° 0 mm 1 m/S 621 mmHg 87%
    05:00 +6°C° 0 mm 1 m/S 622 mmHg 85%
    06:00 +8°C° 0 mm 1 m/S 622 mmHg 82%
    07:00 +9°C° 0,1 mm 1 m/S 623 mmHg 75%
    08:00 +11°C° 0,1 mm 1 m/S 623 mmHg 69%
    09:00 +12°C° 0,1 mm 1 m/S 624 mmHg 62%
    10:00 +13°C° 0,4 mm 1 m/S 624 mmHg 61%
    11:00 +13°C° 0,4 mm 1 m/S 624 mmHg 59%
    12:00 +14°C° 0 mm 1 m/S 624 mmHg 58%
    13:00 +13°C° 1 mm 1 m/S 624 mmHg 61%
    14:00 +13°C° 1 mm 1 m/S 623 mmHg 64%
    15:00 +13°C° 1 mm 1 m/S 623 mmHg 67%
    16:00 +12°C° 1,5 mm 1 m/S 623 mmHg 72%
    17:00 +11°C° 1,5 mm 1 m/S 622 mmHg 78%
    18:00 +10°C° 1,5 mm 1 m/S 622 mmHg 83%
    19:00 +9°C° 0,8 mm 1 m/S 622 mmHg 86%
    20:00 +8°C° 0,8 mm 1 m/S 622 mmHg 88%
    21:00 +7°C° 0,8 mm 1 m/S 622 mmHg 90%
    22:00 +7°C° 0,2 mm 1 m/S 622 mmHg 90%
    23:00 +7°C° 0,2 mm 1 m/S 622 mmHg 90%

    Morgen, 22 Mai, Dienstag

    Zeit Temperatur Niederschläge Wind Luftdruck Luftfeuchtigkeit
    00:00 +6°C° 0,2 mm 1 m/S 622 mmHg 90%
    01:00 +6°C° 0,5 mm 1 m/S 622 mmHg 90%
    02:00 +6°C° 0,5 mm 1 m/S 622 mmHg 91%
    03:00 +6°C° 0,5 mm 1 m/S 622 mmHg 91%
    04:00 +7°C° 0,1 mm 1 m/S 622 mmHg 89%
    05:00 +7°C° 0,1 mm 1 m/S 622 mmHg 88%
    06:00 +8°C° 0,1 mm 1 m/S 622 mmHg 87%
    07:00 +9°C° 0,1 mm 1 m/S 623 mmHg 80%
    08:00 +11°C° 0,1 mm 1 m/S 624 mmHg 73%
    09:00 +12°C° 0,1 mm 1 m/S 625 mmHg 66%
    10:00 +13°C° 0,8 mm 1 m/S 625 mmHg 66%
    11:00 +13°C° 0,8 mm 1 m/S 625 mmHg 66%
    12:00 +14°C° 0,8 mm 1 m/S 625 mmHg 66%
    13:00 +13°C° 1,5 mm 1 m/S 625 mmHg 69%
    14:00 +13°C° 1,5 mm 1 m/S 625 mmHg 72%
    15:00 +13°C° 1,5 mm 1 m/S 625 mmHg 74%
    16:00 +12°C° 0,7 mm 1 m/S 625 mmHg 77%
    17:00 +12°C° 0,7 mm 1 m/S 625 mmHg 79%
    18:00 +12°C° 0,7 mm 1 m/S 625 mmHg 81%
    19:00 +10°C° 0,1 mm 1 m/S 625 mmHg 84%
    20:00 +9°C° 0,1 mm 1 m/S 625 mmHg 87%
    21:00 +8°C° 0,1 mm 1 m/S 624 mmHg 91%
    22:00 +7°C° 0 mm 1 m/S 624 mmHg 90%
    23:00 +7°C° 0 mm 1 m/S 624 mmHg 90%

    übermorgen, 23 Mai, Mittwoch

    Zeit Temperatur Niederschläge Wind Luftdruck Luftfeuchtigkeit
    00:00 +7°C° 0 mm 1 m/S 624 mmHg 90%
    01:00 +6°C° 0 mm 1 m/S 624 mmHg 89%
    02:00 +6°C° 0 mm 1 m/S 624 mmHg 88%
    03:00 +6°C° 0 mm 1 m/S 624 mmHg 88%
    04:00 +7°C° 0 mm 1 m/S 625 mmHg 86%
    05:00 +8°C° 0 mm 1 m/S 625 mmHg 84%
    06:00 +8°C° 0 mm 0 m/S 626 mmHg 82%
    07:00 +11°C° 0 mm 1 m/S 627 mmHg 76%
    08:00 +12°C° 0 mm 1 m/S 628 mmHg 69%
    09:00 +14°C° 0 mm 1 m/S 628 mmHg 62%
    10:00 +15°C° 0,1 mm 2 m/S 629 mmHg 60%
    11:00 +15°C° 0,1 mm 2 m/S 629 mmHg 58%
    12:00 +16°C° 0,1 mm 2 m/S 629 mmHg 56%
    13:00 +16°C° 0,2 mm 2 m/S 628 mmHg 57%
    14:00 +16°C° 0,2 mm 2 m/S 628 mmHg 57%
    15:00 +17°C° 0,2 mm 2 m/S 628 mmHg 57%
    16:00 +16°C° 0,6 mm 2 m/S 628 mmHg 64%
    17:00 +15°C° 0,6 mm 2 m/S 627 mmHg 70%
    18:00 +14°C° 0,6 mm 1 m/S 627 mmHg 77%
    19:00 +12°C° 0,3 mm 1 m/S 627 mmHg 81%
    20:00 +11°C° 0,3 mm 1 m/S 627 mmHg 86%
    21:00 +9°C° 0,3 mm 1 m/S 626 mmHg 90%
    22:00 +9°C° 0 mm 1 m/S 626 mmHg 90%
    23:00 +9°C° 0 mm 1 m/S 626 mmHg 90%

    24 Mai, Donnerstag

    Zeit Temperatur Niederschläge Wind Luftdruck Luftfeuchtigkeit
    00:00 +8°C° 0 mm 1 m/S 626 mmHg 91%
    01:00 +8°C° 0 mm 1 m/S 625 mmHg 90%
    02:00 +8°C° 0 mm 1 m/S 625 mmHg 89%
    03:00 +8°C° 0 mm 1 m/S 625 mmHg 88%
    04:00 +9°C° 0 mm 1 m/S 625 mmHg 85%
    05:00 +10°C° 0 mm 1 m/S 626 mmHg 82%
    06:00 +11°C° 0 mm 1 m/S 626 mmHg 79%
    07:00 +13°C° 0 mm 1 m/S 627 mmHg 72%
    08:00 +15°C° 0 mm 2 m/S 628 mmHg 64%
    09:00 +17°C° 0 mm 2 m/S 629 mmHg 56%
    10:00 +17°C° 0,2 mm 2 m/S 629 mmHg 54%
    11:00 +18°C° 0,2 mm 3 m/S 629 mmHg 52%
    12:00 +19°C° 0,2 mm 3 m/S 629 mmHg 50%
    13:00 +19°C° 0,1 mm 3 m/S 629 mmHg 49%
    14:00 +19°C° 0,1 mm 3 m/S 629 mmHg 48%
    15:00 +19°C° 0,1 mm 3 m/S 629 mmHg 48%
    16:00 +18°C° 0,1 mm 3 m/S 628 mmHg 54%
    17:00 +17°C° 0,1 mm 2 m/S 628 mmHg 59%
    18:00 +16°C° 0,1 mm 2 m/S 627 mmHg 65%
    19:00 +14°C° 0 mm 2 m/S 627 mmHg 69%
    20:00 +12°C° 0 mm 2 m/S 626 mmHg 73%
    21:00 +10°C° 0 mm 1 m/S 626 mmHg 78%
    22:00 +10°C° 0 mm 1 m/S 626 mmHg 74%
    23:00 +10°C° 0 mm 1 m/S 625 mmHg 70%

    25 Mai, Freitag

    Zeit Temperatur Niederschläge Wind Luftdruck Luftfeuchtigkeit
    00:00 +9°C° 0 mm 1 m/S 625 mmHg 67%
    01:00 +8°C° 0 mm 2 m/S 625 mmHg 67%
    02:00 +8°C° 0 mm 2 m/S 625 mmHg 67%
    03:00 +8°C° 0 mm 2 m/S 625 mmHg 68%
    04:00 +9°C° 0 mm 2 m/S 625 mmHg 66%
    05:00 +10°C° 0 mm 2 m/S 626 mmHg 65%
    06:00 +12°C° 0 mm 2 m/S 626 mmHg 64%
    07:00 +14°C° 0 mm 2 m/S 627 mmHg 57%
    08:00 +16°C° 0 mm 2 m/S 628 mmHg 50%
    09:00 +19°C° 0 mm 3 m/S 629 mmHg 43%
    10:00 +19°C° 0,1 mm 3 m/S 629 mmHg 43%
    11:00 +20°C° 0,1 mm 3 m/S 629 mmHg 42%
    12:00 +21°C° 0,1 mm 3 m/S 629 mmHg 41%
    13:00 +21°C° 0 mm 4 m/S 629 mmHg 41%
    14:00 +21°C° 0 mm 4 m/S 629 mmHg 41%
    15:00 +21°C° 0 mm 4 m/S 629 mmHg 40%
    16:00 +20°C° 0 mm 4 m/S 628 mmHg 45%
    17:00 +18°C° 0 mm 3 m/S 628 mmHg 51%
    18:00 +17°C° 0 mm 3 m/S 627 mmHg 56%
    19:00 +15°C° 0 mm 2 m/S 627 mmHg 57%
    20:00 +13°C° 0 mm 2 m/S 626 mmHg 58%
    21:00 +10°C° 0 mm 2 m/S 626 mmHg 60%
    22:00 +10°C° 0 mm 2 m/S 626 mmHg 58%
    23:00 +10°C° 0 mm 2 m/S 626 mmHg 55%

    26 Mai, Samstag

    Zeit Temperatur Niederschläge Wind Luftdruck Luftfeuchtigkeit
    00:00 +9°C° 0 mm 2 m/S 626 mmHg 53%
    01:00 +9°C° 0 mm 2 m/S 626 mmHg 54%
    02:00 +9°C° 0 mm 2 m/S 625 mmHg 55%
    03:00 +9°C° 0 mm 2 m/S 625 mmHg 56%
    04:00 +10°C° 0 mm 2 m/S 626 mmHg 58%
    05:00 +12°C° 0 mm 2 m/S 626 mmHg 60%
    06:00 +13°C° 0 mm 2 m/S 627 mmHg 62%
    07:00 +15°C° 0 mm 2 m/S 628 mmHg 55%
    08:00 +17°C° 0 mm 3 m/S 628 mmHg 48%
    09:00 +19°C° 0 mm 4 m/S 629 mmHg 41%
    10:00 +20°C° 0 mm 4 m/S 630 mmHg 39%
    11:00 +21°C° 0 mm 4 m/S 630 mmHg 37%
    12:00 +22°C° 0 mm 5 m/S 630 mmHg 35%
    13:00 +22°C° 0 mm 5 m/S 630 mmHg 35%
    14:00 +22°C° 0 mm 5 m/S 630 mmHg 35%
    15:00 +22°C° 0 mm 5 m/S 629 mmHg 36%
    16:00 +21°C° 0 mm 4 m/S 629 mmHg 41%
    17:00 +19°C° 0 mm 4 m/S 628 mmHg 46%
    18:00 +18°C° 0 mm 3 m/S 628 mmHg 52%
    19:00 +16°C° 0 mm 3 m/S 627 mmHg 53%
    20:00 +14°C° 0 mm 2 m/S 627 mmHg 54%
    21:00 +12°C° 0 mm 2 m/S 626 mmHg 55%
    22:00 +12°C° 0 mm 2 m/S 626 mmHg 53%
    23:00 +12°C° 0 mm 2 m/S 626 mmHg 52%
    Mehr zeigen